Marseille/Provence

Airport
ICAO code: 
LFML
Summary
ICAO Region: 
EUR
Territory: 
Location: 
Marseille, Provence-Alpes-Cote d' Azur,
Coordinates: 
Aerial View: 
43° 26' 4.697" N, 5° 12' 59.72" E
Metar
Observation
LFML 201000Z AUTO 32016KT CAVOK 09/01 Q1024 BECMG 33015G25KT
Station
Marseille / Marignane
Date/Time
2022-01-20 10:00:00
Wind direction
320°
Wind speed
16 kts
Lowest cloud amount
clouds and visibility OK
Temperature
9°C
Dew point
1°C
Humidity
57%
QNH
1024 hPa
Weather condition
n/a

Description

International airport serving Marseille.

Climatology

Dry-summer subtropical ”Mediterranean" climate (Köppen climate classification Csa) - characterized by hot, dry summers and mild winters. During the summer, subtropical high pressure cells dominate, making rainfall unlikely except for the occasional thunderstorm. In the winter, periodic storms bring rain.

Runways

Designator Length Width Surface Rops
13R/31L 2370 45 ASP Yes/Yes
14R/32L 2370 45 ASP Yes/Yes
13L/31R 3500 45 ASP Yes/Yes
14L/32R 3500 45 ASP Yes/Yes
Airport map: 
Aerial View: 

Accidents and Serious Incidents at or in the vicinity of LFML

SKYbrary Partners:

Safety knowledge contributed by: